Nashua, NH

1:24 PM EDT on October 15, 2019 (GMT -0400)
Boire

Weather History for KASH - August, 2019

Change the Weather History Date:

Sunday, August 11, 2019

  Actual Average Record
Temperature  
Mean Temperature 64 °F -  
Max Temperature 79 °F 80 °F 96 °F (2002)
Min Temperature 51 °F 57 °F 40 °F (1972)
Growing Degree Days 14 (Base 50)    
Moisture  
Dew Point 55 °F    
Average Humidity 71    
Maximum Humidity 100    
Minimum Humidity 42    
Precipitation  
Precipitation 0.00 in - - ()
Sea Level Pressure  
Sea Level Pressure 29.95 in    
Wind  
Wind Speed 4 mph (WNW)    
Max Wind Speed 15 mph    
Max Gust Speed 21 mph    
Visibility 10 miles    
Events      
Averages and records for this station are not official NWS values.
T = Trace of Precipitation, MM = Missing Value Source: NWS Daily Summary

Daily Weather History Graph

Daily Weather History Graph

Search for Another Location

Airport or City:

Astronomy

Aug. 11, 2019 Rise Set
Actual Time 5:47 AM EDT 7:54 PM EDT
Civil Twilight 5:16 AM EDT 8:24 PM EDT
Nautical Twilight 4:38 AM EDT 9:02 PM EDT
Astronomical Twilight 3:56 AM EDT 9:44 PM EDT
Moon 5:33 PM EDT (8/11) 2:02 AM EDT (8/11)
Length of Visible Light 15h 08m
Length of Day
14h 06m
Waxing Gibbous, 87% of the Moon is Illuminated
Aug 11
Waxing Gibbous
Aug 15
Full
Aug 23
Last Quarter
Aug 30
New
Sep 5
First Quarter

Hourly Weather History & Observations

Time (EDT) Temp. Dew Point Humidity Pressure Visibility Wind Dir Wind Speed Gust Speed Precip Events Conditions
12:56 AM 55.0 °F 53.1 °F 93% 29.91 in 10.0 mi NW 3.5 mph - N/A   Clear
1:56 AM 55.0 °F 54.0 °F 96% 29.91 in 10.0 mi Calm Calm - N/A   Clear
2:56 AM 54.0 °F 54.0 °F 100% 29.91 in 10.0 mi Calm Calm - N/A   Clear
3:56 AM 53.1 °F 53.1 °F 100% 29.92 in 10.0 mi Calm Calm - N/A   Clear
4:56 AM 53.1 °F 53.1 °F 100% 29.93 in 10.0 mi Calm Calm - N/A   Clear
5:56 AM 51.1 °F 51.1 °F 100% 29.95 in 10.0 mi NW 3.5 mph - N/A   Clear
6:56 AM 54.0 °F 54.0 °F 100% 29.97 in 10.0 mi Calm Calm - N/A   Clear
7:56 AM 61.0 °F 55.9 °F 83% 29.99 in 10.0 mi Calm Calm - N/A   Clear
8:56 AM 66.9 °F 54.0 °F 63% 29.98 in 10.0 mi WNW 8.1 mph - N/A   Clear
9:56 AM 70.0 °F 53.1 °F 55% 29.97 in 10.0 mi NW 12.7 mph 17.3 mph N/A   Partly Cloudy
10:56 AM 73.0 °F 51.1 °F 46% 29.97 in 10.0 mi WNW 12.7 mph 19.6 mph N/A   Scattered Clouds
11:56 AM 73.9 °F 51.1 °F 45% 29.96 in 10.0 mi NW 15.0 mph 20.7 mph N/A   Mostly Cloudy
12:56 PM 75.0 °F 51.1 °F 43% 29.97 in 10.0 mi West 11.5 mph 17.3 mph N/A   Mostly Cloudy
1:56 PM 75.9 °F 53.1 °F 45% 29.96 in 10.0 mi WNW 10.4 mph 18.4 mph N/A   Mostly Cloudy
2:56 PM 78.1 °F 53.1 °F 42% 29.94 in 10.0 mi West 11.5 mph - N/A   Mostly Cloudy
3:56 PM 78.1 °F 53.1 °F 42% 29.94 in 10.0 mi WNW 12.7 mph 17.3 mph N/A   Mostly Cloudy
4:56 PM 78.1 °F 55.0 °F 45% 29.93 in 10.0 mi West 8.1 mph 16.1 mph N/A   Scattered Clouds
5:56 PM 75.9 °F 55.0 °F 48% 29.93 in 10.0 mi West 4.6 mph - N/A   Mostly Cloudy
6:56 PM 73.9 °F 57.0 °F 55% 29.94 in 10.0 mi Variable 3.5 mph - N/A   Mostly Cloudy
7:56 PM 72.0 °F 59.0 °F 64% 29.94 in 10.0 mi West 3.5 mph - N/A   Scattered Clouds
8:56 PM 68.0 °F 61.0 °F 78% 29.95 in 10.0 mi Calm Calm - N/A   Scattered Clouds
10:56 PM 64.0 °F 61.0 °F 90% 29.97 in 10.0 mi West 3.5 mph - N/A   Clear
11:56 PM 63.0 °F 60.1 °F 90% 29.97 in 10.0 mi NW 3.5 mph - N/A   Clear